Location: Unspecified
(0.0000°N, 0.0000°E)
Time: 09:01:00
(UTC+00:00)

Vanguard 1 Rocket - All Passes

Search period start: 25 February 2017 00:00
Search period end: 07 March 2017 00:00
Orbit: 650 x 4227 km, 34.3° (Epoch: 23 February)

Date Brightness Start Highest point End Pass type
(mag) Time Alt. Az. Time Alt. Az. Time Alt. Az.
25 Feb - 02:33:33 10° N 02:36:54 15° NNE 02:39:42 10° ENE night (unlit)
25 Feb - 04:57:57 10° WNW 05:02:20 50° SW 05:06:54 10° SE visible
25 Feb - 12:23:06 10° SSW 12:35:09 24° SSE 12:52:13 10° E daylight
25 Feb - 14:47:48 10° SW 15:08:23 63° SE 15:34:08 10° ENE daylight
25 Feb - 17:17:30 10° WSW 17:42:22 63° NW 18:04:47 10° NE daylight
25 Feb - 19:58:14 10° W 20:16:51 25° NNW 20:30:31 10° NNE visible
26 Feb - 03:46:33 10° NW 03:51:42 57° NE 03:55:59 10° ESE visible
26 Feb - 06:15:15 10° SW 06:16:57 12° SSW 06:18:47 10° S daylight
26 Feb - 11:14:11 10° S 11:20:17 13° SSE 11:27:57 10° SE daylight
26 Feb - 13:36:18 10° SSW 13:53:16 45° SE 14:17:18 10° ENE daylight
26 Feb - 16:03:18 10° SW 16:26:35 84° NW 16:51:45 10° NE daylight
26 Feb - 18:38:07 10° W 19:01:07 38° NW 19:19:25 10° NNE visible
26 Feb - 21:28:34 10° NW 21:36:54 13° NNW 21:43:35 10° N visible
27 Feb - 02:35:23 10° NNW 02:40:36 25° NNE 02:44:29 10° E night (unlit)
27 Feb - 05:01:49 10° W 05:05:40 27° SW 05:09:36 10° SSE visible
27 Feb - 12:25:45 10° SSW 12:38:39 29° SE 12:57:45 10° E daylight
27 Feb - 14:50:36 10° SW 15:11:02 75° SE 15:37:22 10° ENE daylight
27 Feb - 17:21:08 10° WSW 17:45:12 53° NW 18:07:27 10° NE daylight
27 Feb - 20:04:15 10° WNW 20:20:53 21° NNW 20:33:24 10° NNE visible
28 Feb - 01:24:10 10° NNW 01:28:39 15° NNE 01:32:06 10° NE night (unlit)
28 Feb - 03:49:39 10° WNW 03:55:01 77° SW 03:59:22 10° SE visible
28 Feb - 11:16:28 10° S 11:24:20 16° SSE 11:34:58 10° ESE daylight
28 Feb - 13:39:01 10° SW 13:56:05 54° SE 14:21:11 10° ENE daylight
28 Feb - 16:06:30 10° WSW 16:29:16 72° NW 16:54:29 10° NE daylight
28 Feb - 18:43:00 10° W 19:04:36 32° NNW 19:22:08 10° NNE visible
28 Feb - 21:34:38 10° NW 21:41:40 13° NNW 21:47:26 10° N visible
01 Mar - 00:12:28 10° N 00:15:47 12° N 00:18:35 10° NNE night (unlit)
01 Mar - 02:37:48 10° NW 02:44:10 43° NNE 02:48:33 10° ESE night (unlit)
01 Mar - 05:06:24 10° WSW 05:09:03 15° SSW 05:11:43 10° S visible
01 Mar - 12:28:23 10° SSW 12:41:49 35° SE 13:02:40 10° E daylight
01 Mar - 14:53:33 10° SW 15:13:39 87° SE 15:40:20 10° NE daylight
01 Mar - 17:25:09 10° W 17:48:17 45° NW 18:10:03 10° NE daylight
01 Mar - 20:10:35 10° WNW 20:25:18 19° NNW 20:36:37 10° NNE visible
01 Mar - 22:58:24 10° NNW 23:01:49 11° N 23:04:47 10° NNE visible
02 Mar - 01:25:52 10° NNW 01:32:33 24° NNE 01:37:03 10° ENE night (unlit)
02 Mar - 03:53:08 10° WNW 03:58:15 41° SW 04:02:24 10° SSE visible
02 Mar - 11:18:49 10° S 11:28:00 21° SE 11:41:19 10° ESE daylight
02 Mar - 13:41:49 10° SW 13:58:45 64° SE 14:24:39 10° ENE daylight
02 Mar - 16:09:57 10° WSW 16:32:06 61° NW 16:57:06 10° NE daylight
02 Mar - 18:48:25 10° WNW 19:08:30 27° NNW 19:25:00 10° NNE visible
02 Mar - 21:39:22 10° NNW 21:46:34 13° N 21:52:23 10° NNE visible
03 Mar - 00:13:24 10° NNW 00:20:00 17° NNE 00:24:42 10° NE night (unlit)
03 Mar - 02:40:36 10° NW 02:47:36 75° NE 02:52:10 10° ESE night (unlit)
03 Mar - 12:31:03 10° SSW 12:44:43 43° SE 13:06:59 10° ENE daylight
03 Mar - 14:56:40 10° WSW 15:16:20 81° NW 15:43:05 10° NE daylight
03 Mar - 17:29:36 10° W 17:51:41 38° NNW 18:12:42 10° NNE daylight
03 Mar - 20:16:48 10° NW 20:30:05 17° NNW 20:40:22 10° NNE visible
03 Mar - 22:59:33 10° NNW 23:06:23 14° N 23:11:32 10° NE visible
04 Mar - 01:28:04 10° NW 01:36:18 37° NNE 01:41:18 10° E night (unlit)
04 Mar - 03:57:07 10° W 04:01:26 24° SW 04:05:03 10° SSE visible
04 Mar - 11:21:16 10° SSW 11:31:19 26° SE 11:46:57 10° E daylight
04 Mar - 13:44:44 10° SW 14:01:24 76° SE 14:27:46 10° ENE daylight
04 Mar - 16:13:43 10° WSW 16:35:09 52° NW 16:59:39 10° NE daylight
04 Mar - 18:54:16 10° WNW 19:12:50 23° NNW 19:28:09 10° NNE visible
04 Mar - 21:42:50 10° NNW 21:51:26 14° N 21:58:03 10° NNE visible
05 Mar - 00:15:09 10° NNW 00:24:04 25° NNE 00:29:40 10° ENE night (unlit)
05 Mar - 02:43:44 10° WNW 02:50:52 65° SW 02:55:28 10° SE night (unlit)
05 Mar - 10:13:38 10° SSE 10:18:08 13° SE 10:23:43 10° ESE daylight
05 Mar - 12:33:48 10° SSW 12:47:28 53° SE 13:10:47 10° ENE daylight
05 Mar - 15:00:01 10° WSW 15:19:11 69° NW 15:45:41 10° NE daylight
05 Mar - 17:34:30 10° W 17:55:29 32° NNW 18:15:29 10° NNE daylight
05 Mar - 20:22:24 10° NW 20:35:04 16° N 20:44:49 10° NNE visible
05 Mar - 23:01:16 10° NNW 23:10:46 19° NNE 23:17:10 10° ENE visible
06 Mar - 01:30:36 10° NW 01:39:51 59° NNE 01:45:07 10° ESE night (unlit)
06 Mar - 04:01:56 10° WSW 04:04:38 14° SW 04:07:01 10° S visible
06 Mar - 11:23:49 10° SSW 11:34:21 33° SE 11:51:53 10° E daylight
06 Mar - 13:47:48 10° SW 14:04:07 89° SE 14:30:36 10° NE daylight
06 Mar - 16:17:52 10° W 16:38:31 43° NNW 17:02:12 10° NE daylight
06 Mar - 19:00:18 10° WNW 19:17:33 21° NNW 19:31:44 10° NNE visible
06 Mar - 21:45:34 10° NNW 21:56:12 17° N 22:03:48 10° NE visible
